User: anonymous   Login
Location: Unspecified
(0.0000°N, 0.0000°E)
Time: 15:12:45
(UTC+00:00)
Language:

Transit VBN-1 - Orbit

View from above orbital plane
View from above orbital plane
View from above satellite
View from above satellite

Ground track
Ground track

The orbit data is extracted from the following two-line orbital elements,

1   670U 63038B   18051.82728219 +.00000059 +00000-0 +84227-4 0  9998
2   670 090.0745 327.0069 0043308 089.0781 334.9626 13.44285966666085
Epoch (UTC): 20 February 2018 19:51:17
Eccentricity: 0.0043308
inclination: 90.0745°
perigee height: 1061 km
apogee height: 1126 km
right ascension of ascending node: 327.0069°
argument of perigee: 89.0781°
revolutions per day: 13.44285966
mean anomaly at epoch: 334.9626°
orbit number at epoch: 66608

The dashed part of the orbit path shows where the satellite is in the earth's shadow,  

DLR